Regional Weather Roundup
Issued by NWS Upton, NY

Current Version | Previous Version | Graphics & Text | Print | Product List | Glossary Off
Versions: 1 2 3 4 5 6 7 8 9 10 11 12 13 14 15 16 17 18 19 20 21 22 23 24 25 26 27 28 29 30 31 32 33 34 35 36 37 38 39 40 41 42 43 44 45 46 47 48 49 50

000
ASUS41 KOKX 211005
RWROKX

REGIONAL WEATHER ROUNDUP
NATIONAL WEATHER SERVICE NEW YORK NY
500 AM EST FRI NOV 21 2014

NOTE: "FAIR" INDICATES FEW OR NO CLOUDS BELOW 12,000 FEET WITH NO
SIGNIFICANT WEATHER AND/OR OBSTRUCTIONS TO VISIBILITY.

NYZ071-072-176-178-NJZ106-104-211100-
NEW YORK CITY METRO AREA


CITY           SKY/WX    TMP DP  RH WIND       PRES   REMARKS
CENTRAL PARK   CLEAR     29   8  41 W10G21    30.14R WCI  20
LAGUARDIA APRT CLEAR     29  10  45 W16       30.13R WCI  17
KENNEDY INTL   FAIR      29   7  39 W18G26    30.14R WCI  16
NEWARK/LIBERTY CLEAR     26   9  48 W10       30.14R WCI  16
BRNX BOT. GARD   N/A    N/A N/A N/A W14       30.12F
TETERBORO      CLEAR     28   9  44 W9        30.13R WCI  19
$$

NYZ177-179-078>081-211100-
LONG ISLAND NEW YORK

CITY           SKY/WX    TMP DP  RH WIND       PRES   REMARKS
FARMINGDALE    CLEAR     29   8  41 NW12G18   30.11R WCI  19
ISLIP          CLEAR     28  10  46 W13G22    30.08R WCI  17
SHIRLEY        CLEAR     29  10  45 NW14G21   30.09R WCI  18
WESTHAMPTON    CLEAR     28   9  44 W9        30.09R WCI  19
MONTAUK POINT    N/A     32  13  45 W14G24    30.05R WCI  22
$$

NYZ052-065-067-211100-
HUDSON VALLEY

CITY           SKY/WX    TMP DP  RH WIND       PRES   REMARKS
WHITE PLAINS   CLEAR     26   8  46 W10       30.08R WCI  16
NEWBURGH       NOT AVBL
MONTGOMERY     CLEAR     24   8  50 W7        30.08R WCI  16
POUGHKEEPSIE   CLEAR     25   9  50 SW8       30.09R WCI  16
ALBANY         PTCLDY    22  10  60 W7        30.05R WCI  13
$$

NJZ001-105-106-008-010-013-015-019>022-104-211100-
NEW JERSEY

CITY           SKY/WX    TMP DP  RH WIND       PRES   REMARKS
NEWARK/LIBERTY CLEAR     26   9  48 W10       30.14R WCI  16
TETERBORO      CLEAR     28   9  44 W9        30.13R WCI  19
CALDWELL       CLEAR     26   8  46 VRB3      30.14R
MORRISTOWN       N/A    N/A N/A N/A MISG        N/A
SOMERVILLE     CLEAR     27   9  46 W7        30.14R WCI  19
SUSSEX         CLEAR     24   8  50 SW5       30.10R WCI  18
ANDOVER          N/A     23   8  52 CALM      30.11R
TRENTON        CLEAR     27   7  42 NW13G18   30.17R WCI  16
MILLVILLE      FAIR      29  10  45 W15G22    30.21R WCI  18
ATLANTIC CITY  CLEAR     28   9  44 NW15G21   30.19R WCI  16
WRIGHTSTOWN    CLEAR     27   8  43 W13       30.15R WCI  17
TOMS RIVER     CLEAR     28   9  43 W5        30.17R WCI  23
BELMAR         CLEAR     27   7  43 W9G17     30.14R WCI  17
$$

PAZ047>061-062-071-211100-
EASTERN PENNSYLVANIA

CITY           SKY/WX    TMP DP  RH WIND       PRES   REMARKS
PHILADELPHIA   CLEAR     30   7  37 W13       30.22R WCI  20
ALLENTOWN      CLEAR     25   9  50 W7G17     30.16R WCI  17
SCRANTON       CLEAR     20   9  62 SW6       30.10R WCI  12
$$

CTZ002-004>006-009-010-012-RIZ004-006-007-MAZ004-011-015-211100-
SOUTHERN NEW ENGLAND
 IN CT

CITY           SKY/WX    TMP DP  RH WIND       PRES   REMARKS
BRADLEY INTL   CLEAR     26  10  50 W6        30.02R WCI  19
HARTFORD       CLEAR     27   8  44 W9        30.04R WCI  18
DANBURY        CLEAR     24   7  48 W8        30.08R WCI  15
WTRBRY/OXFORD  CLEAR     25   5  42 W5        30.03R WCI  19
BRIDGEPORT     CLEAR     28   9  44 W8        30.08R WCI  20
MERIDEN        CLEAR     26   7  44 NW6       30.06R WCI  19
NEW HAVEN      CLEAR     31  10  41 W9G16     30.07R WCI  23
CHESTER        FAIR      28   9  43 W5        30.03R WCI  23
GROTON         CLEAR     27  10  49 W10       30.04R WCI  17
WILLIMANTIC    CLEAR     24  16  71 W3        30.03R

 IN RI

CITY           SKY/WX    TMP DP  RH WIND       PRES   REMARKS
PROVIDENCE     CLEAR     27  12  53 NW9       30.02R WCI  18
BLOCK ISLAND   CLEAR     30  12  47 NW14G24   30.01R WCI  20
WESTERLY       CLEAR     28  12  51 W3        30.04R

 IN MA

CITY           SKY/WX    TMP DP  RH WIND       PRES   REMARKS
BOSTON         NOT AVBL
WORCESTER      CLEAR     22   9  57 W12       29.94R WCI  10
WESTFIELD      CLEAR     26   7  44 W9        30.02R WCI  17
PROVINCETOWN   CLEAR     32  18  55 W24G35    29.96R WCI  19
NANTUCKET      CLOUDY    34  14  43 NW15G24   29.99R WCI  24
$$

ANZ330-335-338-340-345-350-353-355-211100-
COASTAL MARINE OBSERVATIONS


STATION/POSITION TIME  SKY/WX   TEMP    WIND        PRES    VSBY  WAVE
                                AIR SEA DIR/SP/G                  HT/PER
                 (UTC)          (F)     (DEG/KT/KT) (MB)    (MI)  (FT/S)
NY HARB ENTRANCE 1000            33 57  300/ 25/ 31 1019.8          4/ 5
4S FIRE IS       1000               53                N/A           5/ 8
20S FIRE ISLAND  1000            34 54  310/ 25/ 31 1018.8          7/ 6
23SW MTP         1000                                 N/A           6/ 8
HUDSON CANYON    1000            37 59  310/ 25/ 33 1018.1          9/ 7
EXECUTION ROCKS  1000            31 48  290/ 16/ 23   N/A
WESTERN LI SOUND 1000            31     290/ 17/ 23   N/A           1/ 3
CENTRAL LI SOUND 0900            32 52  290/ 19/ 25   N/A           4/ 5
EASTERN LI SOUND 0900            33 53  290/ 17/ 23   N/A
ROBBINS REEF     1000            29     280/ 17/ 19 1019.3
$$


>>>>>>>>>>>>>>>>>>>>>>>>>>>> KEY <<<<<<<<<<<<<<<<<<<<<<<<<<<
>                                                          <
>     SKY/WX - SKY CONDITION/PRESENT WEATHER               <
>     TMP    - TEMPERATURE IN FAHRENHEIT                   <
>     DP     - DEWPOINT IN FAHRENHEIT                      <
>     RH     - RELATIVE HUMIDITY IN PERCENT                <
>     WIND   - DIRECTION AND SPEED IN MPH                  <
>     PRES   - MEAN SEA LEVEL PRESSURE IN INCHES OF HG     <
>     WCI    - WIND CHILL INDEX                            <
>     VSB    - VISIBILITY IN MILES                         <
>     HX     - HEAT INDEX                                  <
>     TC     - TEMPERATURE IN CELSIUS                      <
>     VRB    - VARIABLE WIND DIRECTION                     <
>                                                          <
>>>>>>>>>>>>>>>>>>>>>>>>>>>> KEY <<<<<<<<<<<<<<<<<<<<<<<<<<<




USA.gov is the U.S. government's official web portal to all federal, state and local government web resources and services.